Weather History for Frenchville, ME

Change the Weather History Date:

Saturday, January 21, 2012

  Actual Average Record
Temperature  
Mean Temperature -3 °F 8 °F  
Max Temperature 3 °F 17 °F 32 °F (2006)
Min Temperature -9 °F 0 °F -18 °F (2008)
Degree Days  
Heating Degree Days 68    
Month to date heating degree days 1176  
Since 1 July heating degree days 4466  
Cooling Degree Days 0    
Month to date cooling degree days 0  
Year to date cooling degree days 0  
Moisture  
Dew Point -6 °F    
Average Humidity 80    
Maximum Humidity 87    
Minimum Humidity 72    
Precipitation  
Precipitation 0.00 in 0.02 in 0.29 in (2006)
Month to date precipitation 0.85 1.44  
Year to date precipitation 0.85 1.44  
Sea Level Pressure  
Sea Level Pressure 30.20 in    
Wind  
Wind Speed 6 mph (WNW)    
Max Wind Speed 16 mph    
Max Gust Speed 20 mph    
Visibility 10 miles    
Events      
T = Trace of Precipitation, MM = Missing Value Source: NWS Daily Summary

Daily Weather History Graph

Daily Weather History Graph

Search for Another Location

Airport:

Trip Planner

Search our weather history database for the weather conditions in past years. The results will help you decide how hot, cold, wet, or windy it might be!

Date:

Astronomy

Jan. 21, 2012 Rise Set
Actual Time 7:11 AM EST 4:17 PM EST
Civil Twilight 6:37 AM EST 4:51 PM EST
Nautical Twilight 5:59 AM EST 5:29 PM EST
Astronomical Twilight 5:23 AM EST 6:05 PM EST
Moon 5:42 AM EST (1/21) 2:47 PM EST (1/21)
Length of Visible Light 10h 14m
Length of Day
9h 06m
Waning Crescent, 3% of the Moon is Illuminated
Jan 21
Waning Crescent
Jan 23
New
Jan 30
First Quarter
Feb 7
Full
Feb 14
Last Quarter

Hourly Weather History & Observations

Time (EST) Temp. Windchill Dew Point Humidity Pressure Visibility Wind Dir Wind Speed Gust Speed Precip Events Conditions
12:53 AM 1.0 °F -17.3 °F -4.0 °F 79% 30.13 in 10.0 mi NW 13.8 mph - N/A   Overcast
1:15 AM -0.4 °F -14.7 °F -4.0 °F 85% 30.08 in 10.0 mi NNW 8.1 mph - N/A   Scattered Clouds
1:37 AM -0.4 °F -14.7 °F -5.8 °F 78% 30.09 in 10.0 mi NW 8.1 mph - N/A   Mostly Cloudy
1:44 AM -0.4 °F -17.6 °F -5.8 °F 78% 30.10 in 10.0 mi NW 11.5 mph - N/A   Scattered Clouds
1:53 AM -0.9 °F -18.3 °F -5.1 °F 83% 30.16 in 10.0 mi NNW 11.5 mph - N/A   Partly Cloudy
2:53 AM -2.2 °F -19.9 °F -7.6 °F 78% 30.10 in 10.0 mi NNW 11.5 mph - N/A   Clear
3:53 AM -4.0 °F -20.2 °F -8.0 °F 83% 30.17 in 10.0 mi NNW 9.2 mph - N/A   Clear
4:53 AM -6.0 °F -20.1 °F -9.9 °F 83% 30.18 in 10.0 mi NNW 6.9 mph - N/A   Partly Cloudy
5:53 AM -6.0 °F -22.6 °F -9.9 °F 83% 30.18 in 10.0 mi NW 9.2 mph - N/A   Clear
6:53 AM -6.0 °F -20.1 °F -11.0 °F 79% 30.19 in 10.0 mi NW 6.9 mph - N/A   Clear
7:53 AM -7.6 °F -20.6 °F -11.2 °F 84% 30.15 in 10.0 mi West 5.8 mph - N/A   Clear
8:53 AM -7.1 °F -19.9 °F -9.9 °F 87% 30.23 in 10.0 mi WSW 5.8 mph - N/A   Mostly Cloudy
9:53 AM -4.0 °F -12.4 °F -8.0 °F 83% 30.23 in 10.0 mi WNW 3.5 mph - N/A   Clear
10:53 AM -2.9 °F -11.2 °F -8.0 °F 79% 30.21 in 10.0 mi West 3.5 mph - N/A   Clear
11:53 AM -0.9 °F -16.4 °F -7.1 °F 75% 30.20 in 10.0 mi West 9.2 mph - N/A   Overcast
12:53 PM -0.0 °F -11.6 °F -5.1 °F 79% 30.19 in 10.0 mi West 5.8 mph - N/A   Overcast
1:53 PM 1.9 °F -9.2 °F -5.1 °F 72% 30.20 in 10.0 mi West 5.8 mph - N/A   Partly Cloudy
2:53 PM 1.9 °F -7.6 °F -4.0 °F 76% 30.22 in 10.0 mi WSW 4.6 mph - N/A   Mostly Cloudy
3:53 PM 3.0 °F -4.4 °F -4.0 °F 73% 30.23 in 10.0 mi WSW 3.5 mph - N/A   Clear
4:53 PM 1.9 °F -5.6 °F -4.0 °F 76% 30.24 in 10.0 mi West 3.5 mph - N/A   Clear
5:53 PM 1.0 °F -6.7 °F -4.0 °F 79% 30.25 in 10.0 mi SW 3.5 mph - N/A   Clear
6:53 PM -0.0 °F -9.9 °F -5.1 °F 79% 30.25 in 10.0 mi SSW 4.6 mph - N/A   Clear
7:53 PM -0.0 °F - -5.1 °F 79% 30.26 in 10.0 mi Calm Calm - N/A   Clear
8:53 PM -2.0 °F -12.2 °F -6.0 °F 83% 30.27 in 10.0 mi WSW 4.6 mph - N/A   Clear
9:53 PM -2.0 °F -15.4 °F -6.0 °F 83% 30.29 in 10.0 mi WNW 6.9 mph - N/A   Clear
10:53 PM -2.2 °F -18.0 °F -5.8 °F 85% 30.22 in 10.0 mi West 9.2 mph - N/A   Clear
11:53 PM -0.9 °F -12.7 °F -6.0 °F 79% 30.32 in 10.0 mi WNW 5.8 mph - N/A   Clear